SCP
1 1 1 0 0 0 0 0 0 0 0 0 0 0 0 0 0 0 0 0 0 0 0 0 0 0 0 1 0 0 0 0 0 0 0 0 0 0 0 0 0 0 0
2 1 1 1 1 0 0 0 0 0 0 0 0 0 0 0 0 0 0 0 0 0 0 0 0 0 0 0 0 0 0 0 0 0 0 0 0 0 0 0 0 0 0
3 2 1 1 1 1 1 0 0 0 0 0 0 0 0 0 0 0 0 0 0 0 0 0 0 0 1 1 0 0 0 0 0 1 0 0 0 0 0 0 0 0 0
2 2 2 2 2 2 1 0 0 0 0 0 1 1 1 0 0 0 0 0 0 0 0 0 0 0 1 1 0 0 0 0 0 0 1 0 0 0 0 0 0 0 0
2 2 3 5 5 2 1 1 1 1 1 1 0 0 0 0 0 0 0 0 0 0 0 0 0 0 0 0 0 0 0 0 0 0 0 0 0 0 0 0 0 0 0
2 3 5 7 6 3 1 1 1 2 2 1 1 0 0 -0 -0 0 0 0 1 0 0 0 0 0 0 0 0 0 0 0 1 0 0 0 0 0 0 0 0 0 0
2 3 3 3 3 3 3 6 5 5 3 3 2 1 0 -1 -1 -0 0 1 1 1 1 0 0 0 0 0 0 0 0 0 1 1 0 0 0 0 0 0 0 0 0
3 3 2 3 3 3 5 7 11 4 6 8 4 8 2 0 -1 -0 0 1 4 4 2 1 1 0 0 0 0 0 0 0 0 1 1 0 0 0 0 0 0 0 0
3 3 3 3 4 5 5 4 4 4 2 2 3 2 2 1 1 0 1 1 2 3 4 2 1 1 1 0 -0 0 1 1 0 0 1 1 0 0 0 0 0 0 0
4 4 3 4 6 5 5 4 3 3 1 1 2 3 6 6 2 0 -0 1 2 3 5 4 2 2 1 0 -0 -0 0 0 0 1 1 1 0 0 0 0 0 0 0
5 4 4 4 5 4 5 5 5 5 2 1 1 1 2 4 3 2 0 0 2 3 2 3 3 2 1 1 0 -0 0 0 0 0 1 0 0 0 0 0 0 0 0
8 6 5 5 5 4 4 5 5 5 3 3 1 1 1 2 4 3 1 1 2 2 2 1 2 1 2 1 1 0 0 0 0 0 0 0 0 0 0 0 0 0 0
7 6 6 7 6 5 5 5 5 4 4 3 4 2 2 1 1 2 2 1 2 1 1 1 1 1 1 1 1 1 0 0 0 0 0 0 0 0 0 0 0 0 0
7 5 6 7 6 6 6 6 5 4 5 3 3 3 1 1 1 1 1 1 1 0 0 1 1 1 2 1 1 1 1 0 0 0 0 0 0 0 0 0 0 0 0
7 4 5 6 5 5 5 5 6 6 4 3 4 4 2 1 1 1 1 1 0 0 0 0 0 0 0 0 1 1 1 1 0 0 0 0 0 0 0 0 0 0 0
6 3 4 4 4 3 3 3 4 4 5 4 2 3 3 1 1 3 2 1 1 0 0 0 0 0 0 0 1 1 1 0 0 0 0 0 0 0 0 0 0 0 0
1 1 1 0 1 1 2 3 3 2 2 3 3 2 2 2 2 1 1 1 1 0 0 0 0 0 1 1 1 1 1 1 1 0 0 0 0 0 0 0 0 0 0
2 1 1 1 1 1 1 2 2 1 1 1 2 2 1 1 2 2 1 1 1 1 0 0 0 0 0 1 1 2 2 1 0 0 0 0 0 0 0 0 0 0 0
2 1 1 0 0 0 1 1 1 1 1 1 1 1 1 1 1 1 1 1 0 0 0 0 0 0 1 1 0 1 0 0 0 0 0 0 0 0 0 0 0 0 0
1 1 1 0 0 0 0 0 0 0 0 0 0 0 0 0 0 0 1 1 0 0 0 0 0 0 1 1 1 0 0 0 0 0 0 0 0 0 0 0 0 0 0
0 0 1 0 0 0 0 0 0 0 0 0 0 0 0 0 0 0 0 0 0 0 0 0 0 0 0 1 0 0 0 0 0 0 0 0 0 0 0 0 0 0 0
0 0 0 1 1 1 0 0 0 0 0 0 0 0 0 0 0 0 0 0 0 0 0 0 0 0 0 0 0 0 0 0 0 0 0 0 1 0 0 0 0 0 0
1 1 1 0 0 2 1 0 0 1 1 0 0 0 0 0 0 0 0 0 0 0 0 0 0 0 0 0 0 0 0 0 0 0 -0 0 0 0 0 0 0 0 0
1 1 1 1 1 1 1 0 0 1 2 1 0 0 0 0 0 0 0 0 0 0 0 0 0 0 0 0 0 0 -0 0 0 0 0 0 0 0 0 0 0 0 0
0 1 1 1 1 1 1 0 0 1 1 1 1 1 0 0 0 0 0 0 0 0 0 -0 0 0 0 0 0 0 -0 0 0 -0 0 0 0 0 0 0 0 0 0
0 0 0 1 0 1 1 0 0 1 2 1 2 1 0 0 0 0 0 0 0 0 0 0 0 0 0 0 0 0 0 0 -0 0 0 0 0 0 0 0 0 0 0
Wind_Speed_500mb
42 48 37 31 26 23 21 17 16 16 16 15 14 15 15 16 18 18 17 27 28 27 24 22 23 25 23 25 22 20 14 16 19 21 20 18 17 18 18 20 24 28 29
52 43 47 42 37 28 23 23 20 19 19 22 20 19 20 20 20 23 21 24 29 31 31 23 22 25 22 24 24 21 17 14 14 21 23 21 21 21 23 24 26 31 32
60 51 42 41 41 40 38 36 36 33 27 22 24 21 23 22 21 26 27 27 25 32 32 34 28 26 24 25 24 23 20 16 14 15 20 23 25 27 26 26 31 32 36
51 51 47 45 46 46 43 41 36 30 20 21 21 20 22 28 28 31 30 29 28 29 28 34 34 32 29 25 25 24 20 21 18 15 17 20 21 26 29 29 30 35 38
71 75 59 57 50 51 51 45 37 33 18 18 17 22 28 34 32 32 34 35 33 36 32 30 31 38 35 31 30 28 26 24 24 20 22 22 22 26 27 30 32 35 38
82 76 64 66 65 63 54 48 43 30 25 19 13 24 29 26 26 29 29 31 32 31 29 30 26 28 34 35 37 35 32 32 31 27 28 30 29 32 34 35 33 34 39
70 73 49 61 70 60 65 65 46 37 21 18 14 16 26 28 20 14 17 23 24 22 17 17 21 22 23 31 36 42 39 37 35 31 27 32 34 33 34 39 41 36 38
73 75 76 60 61 57 63 53 56 37 23 23 15 21 24 19 24 12 11 9 8 8 2 4 15 19 24 26 31 34 40 39 36 31 27 25 30 33 38 40 40 39 39
71 72 69 50 52 51 46 49 55 57 54 51 45 32 22 27 27 24 21 16 13 12 13 7 13 14 19 27 30 32 35 38 38 34 30 28 26 29 28 31 35 38 40
72 71 68 63 69 60 56 52 61 69 57 62 58 51 60 38 36 41 20 17 13 19 18 2 9 11 18 22 26 31 30 31 36 39 36 33 31 29 27 28 31 38 40
74 69 62 61 59 63 52 61 55 67 65 76 73 66 58 58 62 56 51 28 24 22 23 8 10 7 12 14 18 23 24 25 30 39 40 41 37 34 31 30 31 34 38
61 70 62 66 66 62 61 54 59 73 75 56 53 61 59 54 55 57 54 37 25 17 30 24 17 19 9 4 12 12 17 19 27 35 40 46 44 41 38 36 36 37 41
58 55 63 64 57 60 56 59 59 62 59 55 65 61 64 51 55 37 36 33 26 18 17 12 18 21 27 28 34 46 55 45 29 29 34 41 49 46 43 41 40 40 41
59 53 61 61 62 51 55 55 54 54 45 45 49 49 44 50 54 50 52 59 50 40 39 36 39 45 46 50 51 57 62 57 50 45 48 41 49 48 46 44 42 41 40
48 49 53 55 59 61 59 53 55 50 49 51 53 54 56 55 58 49 45 54 61 62 71 76 67 74 84 76 64 65 61 64 69 60 57 50 53 51 48 46 44 43 40
48 44 41 54 61 61 61 60 51 49 51 55 51 56 55 54 52 49 46 45 47 46 49 59 67 79 84 74 62 64 69 69 73 61 58 62 61 56 46 46 45 43 40
45 49 53 50 56 54 48 47 46 46 47 48 47 47 44 41 42 45 42 41 43 45 52 61 56 62 70 63 63 60 58 55 58 56 53 53 48 58 45 46 45 42 39
38 32 26 38 34 32 37 40 40 41 42 40 39 38 36 35 37 39 41 41 46 47 51 54 56 57 59 58 56 56 57 61 58 52 49 48 47 52 45 45 45 40 39
28 32 33 34 30 31 35 36 36 38 38 36 35 34 32 32 34 35 37 41 43 44 46 46 51 51 54 54 48 43 48 54 44 38 46 47 54 43 45 42 41 40 39
23 29 36 38 36 37 35 30 30 31 31 31 30 30 29 30 32 31 33 37 39 42 45 48 50 51 51 45 51 47 53 45 39 48 44 45 46 47 42 39 42 40 39
52 37 44 50 49 46 42 39 36 32 30 28 26 23 22 25 31 27 25 26 29 35 40 46 49 50 44 47 52 50 48 43 37 35 35 47 50 45 40 41 39 35 33
75 77 57 55 63 63 58 58 48 42 38 35 34 29 24 22 20 20 21 28 33 39 41 43 49 46 47 47 45 43 40 41 38 35 41 46 38 32 25 27 30 25 27
84 70 70 76 73 76 75 74 69 60 48 45 41 36 32 26 28 24 24 30 30 36 41 48 50 51 48 46 46 39 42 44 41 28 23 36 41 28 26 28 33 27 24
52 69 86 86 74 74 78 84 82 75 68 62 52 47 44 39 34 33 27 28 31 30 33 36 44 48 48 47 44 43 46 41 40 34 41 32 30 23 23 27 32 25 27
57 59 56 56 59 63 70 80 83 85 73 71 62 55 50 52 49 48 42 40 35 34 34 42 41 51 54 54 57 51 45 34 35 39 47 40 26 21 21 20 31 29 28
61 61 62 63 61 59 61 73 79 70 72 74 73 62 66 59 60 58 52 48 40 37 36 44 45 45 45 35 37 44 42 43 39 34 40 29 26 18 16 16 22 25 28
Wind_Direction_500mb
222 225 217 211 220 225 236 248 260 256 263 269 266 268 268 268 273 281 279 287 285 278 272 269 267 266 262 257 248 246 258 251 244 240 239 238 241 236 232 230 230 224 223
223 223 231 236 238 238 237 244 247 254 261 269 270 273 277 273 276 278 279 280 284 279 275 270 271 269 265 260 252 242 250 258 245 251 246 243 247 247 236 233 234 233 231
226 229 234 241 245 245 249 253 262 264 264 266 268 274 282 284 281 282 288 287 283 284 278 271 270 272 269 263 254 240 242 252 253 265 255 248 250 253 247 241 241 241 240
242 246 244 249 255 257 251 252 250 248 254 261 264 263 272 281 282 280 279 281 282 281 279 280 271 271 271 263 255 244 243 247 248 260 268 257 250 253 253 250 247 245 245
218 234 237 239 250 244 245 243 246 244 238 247 267 279 287 293 296 292 284 278 274 277 278 273 280 269 269 265 258 253 256 254 252 256 268 264 259 256 258 259 255 248 246
228 234 228 228 226 236 244 248 246 240 217 220 262 285 295 303 305 296 280 270 263 268 279 282 269 279 275 271 266 260 263 263 261 259 268 268 266 261 261 262 265 257 248
225 236 227 239 237 245 242 247 225 218 224 240 275 298 308 318 309 301 294 271 251 251 280 294 305 281 273 279 273 266 264 269 267 261 266 268 269 270 264 264 260 261 255
234 232 237 239 242 237 223 216 218 202 207 218 234 272 295 303 287 298 343 333 191 190 183 327 312 300 293 275 271 282 263 263 264 266 263 272 266 274 275 269 256 256 260
232 232 234 229 224 211 215 231 235 234 239 239 252 253 276 265 276 276 281 263 272 226 198 254 297 295 296 295 274 280 276 264 266 267 269 272 271 274 285 271 257 255 260
224 224 227 228 227 230 221 237 246 249 255 249 254 242 241 253 278 279 259 232 263 229 220 197 300 294 294 293 278 266 275 274 267 266 270 275 273 274 284 277 268 261 260
220 220 222 223 227 231 232 230 235 241 253 255 250 247 250 250 247 255 263 253 238 233 221 228 305 294 274 302 291 276 284 275 279 274 268 272 273 273 280 281 275 267 266
221 223 224 228 237 238 231 234 241 247 257 250 245 242 238 239 242 243 248 257 252 247 236 246 276 272 278 290 302 282 314 299 292 288 279 271 267 270 275 280 280 275 272
221 222 223 226 227 233 233 243 245 249 251 244 243 242 239 238 239 237 238 243 263 273 282 247 255 273 280 288 285 290 292 295 301 286 273 298 263 264 270 277 282 279 275
224 217 219 223 231 229 234 237 243 245 235 233 227 231 238 240 236 240 248 259 258 268 277 280 280 278 283 292 283 293 289 286 286 291 285 277 256 259 265 272 281 281 275
212 206 216 222 230 236 236 237 239 239 241 243 240 237 241 242 245 247 248 250 261 260 269 275 290 279 277 285 287 291 283 286 286 286 273 275 261 254 258 268 278 281 277
209 223 228 233 230 236 241 242 238 241 237 240 244 246 242 243 246 248 247 247 251 253 261 271 282 286 268 278 279 277 277 281 283 283 274 264 245 252 251 265 275 278 274
219 233 229 245 237 233 234 234 234 232 239 239 236 237 238 237 237 243 244 248 248 250 253 264 271 276 270 267 275 276 278 277 280 279 275 260 243 252 250 262 274 276 269
194 202 206 212 216 219 226 228 232 233 235 236 235 234 237 237 242 244 243 249 250 251 250 259 270 273 276 277 276 275 274 278 274 270 247 249 250 244 250 263 274 273 267
191 197 206 208 207 215 221 224 227 230 232 234 235 237 235 236 240 242 246 247 254 258 260 261 267 274 267 267 271 275 274 276 274 257 251 246 241 241 253 264 275 272 267
222 224 220 217 217 215 217 219 221 220 224 227 226 225 228 231 234 238 243 247 252 258 261 263 266 268 265 265 265 272 275 272 271 249 251 250 243 243 254 268 274 271 265
249 261 237 234 227 223 219 214 218 217 212 214 219 218 225 224 228 233 242 254 259 262 266 266 267 269 263 262 264 284 273 277 263 246 260 251 243 249 258 264 270 267 260
254 258 271 241 238 229 228 225 216 213 215 216 218 224 224 245 252 263 279 276 276 266 261 261 265 268 266 261 266 279 272 286 257 252 238 239 235 233 243 259 264 272 259
235 234 241 248 251 236 229 231 229 225 216 217 220 223 228 238 258 263 281 292 290 283 278 270 264 266 274 269 268 278 284 278 245 252 249 237 235 237 239 245 257 265 266
235 234 230 239 238 236 232 230 233 232 229 225 222 225 230 235 241 257 269 277 283 284 283 284 272 269 274 268 260 271 293 276 242 251 245 239 235 236 232 238 253 265 262
235 235 234 237 236 234 232 233 233 233 228 228 227 227 230 242 251 261 269 281 285 289 294 299 288 269 270 267 261 275 280 252 237 249 252 238 237 230 232 248 258 259 252
239 238 237 236 237 235 234 233 233 229 230 228 229 229 235 238 251 258 266 275 277 283 294 298 297 281 269 261 266 272 258 252 253 239 234 228 225 217 251 230 258 253 242
Wind_Speed_850mb
42 48 37 31 26 23 21 17 16 16 16 15 14 15 15 16 18 18 17 27 28 27 24 22 23 25 23 25 22 20 14 16 19 21 20 18 17 18 18 20 24 28 29
52 43 47 42 37 28 23 23 20 19 19 22 20 19 20 20 20 23 21 24 29 31 31 23 22 25 22 24 24 21 17 14 14 21 23 21 21 21 23 24 26 31 32
60 51 42 41 41 40 38 36 36 33 27 22 24 21 23 22 21 26 27 27 25 32 32 34 28 26 24 25 24 23 20 16 14 15 20 23 25 27 26 26 31 32 36
51 51 47 45 46 46 43 41 36 30 20 21 21 20 22 28 28 31 30 29 28 29 28 34 34 32 29 25 25 24 20 21 18 15 17 20 21 26 29 29 30 35 38
71 75 59 57 50 51 51 45 37 33 18 18 17 22 28 34 32 32 34 35 33 36 32 30 31 38 35 31 30 28 26 24 24 20 22 22 22 26 27 30 32 35 38
82 76 64 66 65 63 54 48 43 30 25 19 13 24 29 26 26 29 29 31 32 31 29 30 26 28 34 35 37 35 32 32 31 27 28 30 29 32 34 35 33 34 39
70 73 49 61 70 60 65 65 46 37 21 18 14 16 26 28 20 14 17 23 24 22 17 17 21 22 23 31 36 42 39 37 35 31 27 32 34 33 34 39 41 36 38
73 75 76 60 61 57 63 53 56 37 23 23 15 21 24 19 24 12 11 9 8 8 2 4 15 19 24 26 31 34 40 39 36 31 27 25 30 33 38 40 40 39 39
71 72 69 50 52 51 46 49 55 57 54 51 45 32 22 27 27 24 21 16 13 12 13 7 13 14 19 27 30 32 35 38 38 34 30 28 26 29 28 31 35 38 40
72 71 68 63 69 60 56 52 61 69 57 62 58 51 60 38 36 41 20 17 13 19 18 2 9 11 18 22 26 31 30 31 36 39 36 33 31 29 27 28 31 38 40
74 69 62 61 59 63 52 61 55 67 65 76 73 66 58 58 62 56 51 28 24 22 23 8 10 7 12 14 18 23 24 25 30 39 40 41 37 34 31 30 31 34 38
61 70 62 66 66 62 61 54 59 73 75 56 53 61 59 54 55 57 54 37 25 17 30 24 17 19 9 4 12 12 17 19 27 35 40 46 44 41 38 36 36 37 41
58 55 63 64 57 60 56 59 59 62 59 55 65 61 64 51 55 37 36 33 26 18 17 12 18 21 27 28 34 46 55 45 29 29 34 41 49 46 43 41 40 40 41
59 53 61 61 62 51 55 55 54 54 45 45 49 49 44 50 54 50 52 59 50 40 39 36 39 45 46 50 51 57 62 57 50 45 48 41 49 48 46 44 42 41 40
48 49 53 55 59 61 59 53 55 50 49 51 53 54 56 55 58 49 45 54 61 62 71 76 67 74 84 76 64 65 61 64 69 60 57 50 53 51 48 46 44 43 40
48 44 41 54 61 61 61 60 51 49 51 55 51 56 55 54 52 49 46 45 47 46 49 59 67 79 84 74 62 64 69 69 73 61 58 62 61 56 46 46 45 43 40
45 49 53 50 56 54 48 47 46 46 47 48 47 47 44 41 42 45 42 41 43 45 52 61 56 62 70 63 63 60 58 55 58 56 53 53 48 58 45 46 45 42 39
38 32 26 38 34 32 37 40 40 41 42 40 39 38 36 35 37 39 41 41 46 47 51 54 56 57 59 58 56 56 57 61 58 52 49 48 47 52 45 45 45 40 39
28 32 33 34 30 31 35 36 36 38 38 36 35 34 32 32 34 35 37 41 43 44 46 46 51 51 54 54 48 43 48 54 44 38 46 47 54 43 45 42 41 40 39
23 29 36 38 36 37 35 30 30 31 31 31 30 30 29 30 32 31 33 37 39 42 45 48 50 51 51 45 51 47 53 45 39 48 44 45 46 47 42 39 42 40 39
52 37 44 50 49 46 42 39 36 32 30 28 26 23 22 25 31 27 25 26 29 35 40 46 49 50 44 47 52 50 48 43 37 35 35 47 50 45 40 41 39 35 33
75 77 57 55 63 63 58 58 48 42 38 35 34 29 24 22 20 20 21 28 33 39 41 43 49 46 47 47 45 43 40 41 38 35 41 46 38 32 25 27 30 25 27
84 70 70 76 73 76 75 74 69 60 48 45 41 36 32 26 28 24 24 30 30 36 41 48 50 51 48 46 46 39 42 44 41 28 23 36 41 28 26 28 33 27 24
52 69 86 86 74 74 78 84 82 75 68 62 52 47 44 39 34 33 27 28 31 30 33 36 44 48 48 47 44 43 46 41 40 34 41 32 30 23 23 27 32 25 27
57 59 56 56 59 63 70 80 83 85 73 71 62 55 50 52 49 48 42 40 35 34 34 42 41 51 54 54 57 51 45 34 35 39 47 40 26 21 21 20 31 29 28
61 61 62 63 61 59 61 73 79 70 72 74 73 62 66 59 60 58 52 48 40 37 36 44 45 45 45 35 37 44 42 43 39 34 40 29 26 18 16 16 22 25 28
Wind_Direction_850mb
222 225 217 211 220 225 236 248 260 256 263 269 266 268 268 268 273 281 279 287 285 278 272 269 267 266 262 257 248 246 258 251 244 240 239 238 241 236 232 230 230 224 223
223 223 231 236 238 238 237 244 247 254 261 269 270 273 277 273 276 278 279 280 284 279 275 270 271 269 265 260 252 242 250 258 245 251 246 243 247 247 236 233 234 233 231
226 229 234 241 245 245 249 253 262 264 264 266 268 274 282 284 281 282 288 287 283 284 278 271 270 272 269 263 254 240 242 252 253 265 255 248 250 253 247 241 241 241 240
242 246 244 249 255 257 251 252 250 248 254 261 264 263 272 281 282 280 279 281 282 281 279 280 271 271 271 263 255 244 243 247 248 260 268 257 250 253 253 250 247 245 245
218 234 237 239 250 244 245 243 246 244 238 247 267 279 287 293 296 292 284 278 274 277 278 273 280 269 269 265 258 253 256 254 252 256 268 264 259 256 258 259 255 248 246
228 234 228 228 226 236 244 248 246 240 217 220 262 285 295 303 305 296 280 270 263 268 279 282 269 279 275 271 266 260 263 263 261 259 268 268 266 261 261 262 265 257 248
225 236 227 239 237 245 242 247 225 218 224 240 275 298 308 318 309 301 294 271 251 251 280 294 305 281 273 279 273 266 264 269 267 261 266 268 269 270 264 264 260 261 255
234 232 237 239 242 237 223 216 218 202 207 218 234 272 295 303 287 298 343 333 191 190 183 327 312 300 293 275 271 282 263 263 264 266 263 272 266 274 275 269 256 256 260
232 232 234 229 224 211 215 231 235 234 239 239 252 253 276 265 276 276 281 263 272 226 198 254 297 295 296 295 274 280 276 264 266 267 269 272 271 274 285 271 257 255 260
224 224 227 228 227 230 221 237 246 249 255 249 254 242 241 253 278 279 259 232 263 229 220 197 300 294 294 293 278 266 275 274 267 266 270 275 273 274 284 277 268 261 260
220 220 222 223 227 231 232 230 235 241 253 255 250 247 250 250 247 255 263 253 238 233 221 228 305 294 274 302 291 276 284 275 279 274 268 272 273 273 280 281 275 267 266
221 223 224 228 237 238 231 234 241 247 257 250 245 242 238 239 242 243 248 257 252 247 236 246 276 272 278 290 302 282 314 299 292 288 279 271 267 270 275 280 280 275 272
221 222 223 226 227 233 233 243 245 249 251 244 243 242 239 238 239 237 238 243 263 273 282 247 255 273 280 288 285 290 292 295 301 286 273 298 263 264 270 277 282 279 275
224 217 219 223 231 229 234 237 243 245 235 233 227 231 238 240 236 240 248 259 258 268 277 280 280 278 283 292 283 293 289 286 286 291 285 277 256 259 265 272 281 281 275
212 206 216 222 230 236 236 237 239 239 241 243 240 237 241 242 245 247 248 250 261 260 269 275 290 279 277 285 287 291 283 286 286 286 273 275 261 254 258 268 278 281 277
209 223 228 233 230 236 241 242 238 241 237 240 244 246 242 243 246 248 247 247 251 253 261 271 282 286 268 278 279 277 277 281 283 283 274 264 245 252 251 265 275 278 274
219 233 229 245 237 233 234 234 234 232 239 239 236 237 238 237 237 243 244 248 248 250 253 264 271 276 270 267 275 276 278 277 280 279 275 260 243 252 250 262 274 276 269
194 202 206 212 216 219 226 228 232 233 235 236 235 234 237 237 242 244 243 249 250 251 250 259 270 273 276 277 276 275 274 278 274 270 247 249 250 244 250 263 274 273 267
191 197 206 208 207 215 221 224 227 230 232 234 235 237 235 236 240 242 246 247 254 258 260 261 267 274 267 267 271 275 274 276 274 257 251 246 241 241 253 264 275 272 267
222 224 220 217 217 215 217 219 221 220 224 227 226 225 228 231 234 238 243 247 252 258 261 263 266 268 265 265 265 272 275 272 271 249 251 250 243 243 254 268 274 271 265
249 261 237 234 227 223 219 214 218 217 212 214 219 218 225 224 228 233 242 254 259 262 266 266 267 269 263 262 264 284 273 277 263 246 260 251 243 249 258 264 270 267 260
254 258 271 241 238 229 228 225 216 213 215 216 218 224 224 245 252 263 279 276 276 266 261 261 265 268 266 261 266 279 272 286 257 252 238 239 235 233 243 259 264 272 259
235 234 241 248 251 236 229 231 229 225 216 217 220 223 228 238 258 263 281 292 290 283 278 270 264 266 274 269 268 278 284 278 245 252 249 237 235 237 239 245 257 265 266
235 234 230 239 238 236 232 230 233 232 229 225 222 225 230 235 241 257 269 277 283 284 283 284 272 269 274 268 260 271 293 276 242 251 245 239 235 236 232 238 253 265 262
235 235 234 237 236 234 232 233 233 233 228 228 227 227 230 242 251 261 269 281 285 289 294 299 288 269 270 267 261 275 280 252 237 249 252 238 237 230 232 248 258 259 252
239 238 237 236 237 235 234 233 233 229 230 228 229 229 235 238 251 258 266 275 277 283 294 298 297 281 269 261 266 272 258 252 253 239 234 228 225 217 251 230 258 253 242